Flag for Mauritania Weather past 2 weeks in Nouakchott, Mauritania

Now
97 °F

Sandstorm.


Feels Like: 92 °F
Forecast: N/A
Wind: 20 mph from East

Location: Nouakchott Airport

Current Time: Mar 30, 2015 at 4:28:13 PM

Latest Report: Mar 30, 2015 at 4:00 PM


Visibility: 2 mi

Pressure: 29.86 "Hg

Humidity: 5%

Dew point: 14 °F

Location of NouakchottLocation

Historic Weather in Nouakchott — Graph

°F

Nouakchott temperature yesterday

Maximum temperature yesterday: 97 °F (at 3:00 PM)
Minimum temperature yesterday: 63 °F (at 7:00 AM)
Average temperature yesterday: 81 °F

Past Weeks' High & Low Weather Summary

 TemperatureHumidityPressure
High100 °F (Mar 28, 4:00 PM)94% (Mar 17, 6:30 AM)30.07 "Hg (Mar 17, 6:30 AM)
Low57 °F (Mar 21, 7:00 AM)4% (Mar 30, 3:00 PM)29.77 "Hg (Mar 18, 5:30 PM)
Average72 °F45%29.92 "Hg
* Reported Mar 15 3:00 PM — Mar 30 3:00 PM, Nouakchott, Weather by CustomWeather, © 2015

Note: Actual official high and low records may vary slightly from our data, if they occured in-between our weather recording intervals... More about our weather records

Advertising

Nouakchott weather history for previous 24 hours

 ConditionsComfort  
Time TempWeatherWind HumidityBarometerVisibility
3:00 PM
Mon, Mar 30
95 °FSandstorm.22 mph4%29.89 "Hg1 mi
2:30 PM95 °FSandstorm.21 mph5%29.92 "Hg1 mi
2:00 PM93 °FSandstorm.23 mph5%29.92 "Hg1 mi
1:30 PM93 °FSandstorm.23 mph5%29.95 "Hg1 mi
1:00 PM95 °FSandstorm.23 mph5%29.95 "Hg1 mi
12:30 PM93 °FSandstorm.25 mph6%29.98 "Hg1 mi
12:00 PM93 °FSandstorm.24 mph6%29.98 "Hg1 mi
11:30 AM91 °FSandstorm.24 mph7%30.01 "Hg2 mi
11:02 AM90 °FSandstorm.23 mph7%30.01 "Hg2 mi
10:30 AM88 °FClear.21 mph9%30.01 "Hg4 mi
10:00 AM86 °FClear.17 mph9%30.04 "Hg4 mi
9:30 AM82 °FClear.12 mph12%30.01 "Hg4 mi
9:00 AM79 °FClear.12 mph15%30.01 "Hg4 mi
8:30 AM75 °FClear.9 mph16%30.01 "Hg4 mi
8:00 AM72 °FClear.6 mph19%29.98 "Hg4 mi
7:30 AM68 °FClear.7 mph23%29.98 "Hg4 mi
7:00 AM66 °FClear.7 mph24%29.98 "Hg4 mi
6:30 AM64 °FClear.7 mph26%29.98 "Hg4 mi
6:00 AM66 °FClear.7 mph22%29.98 "Hg4 mi
5:30 AM68 °FClear.7 mph21%29.95 "Hg4 mi
5:00 AM70 °FClear.7 mph21%29.95 "Hg4 mi
4:30 AM70 °FClear.7 mph21%29.95 "Hg4 mi
4:00 AM72 °FClear.7 mph20%29.95 "Hg4 mi
3:30 AM72 °FClear.6 mph20%29.95 "Hg4 mi
3:00 AM73 °FClear.7 mph19%29.95 "Hg4 mi
2:30 AM73 °FClear.7 mph19%29.95 "Hg4 mi
2:00 AM75 °FClear.6 mph19%29.95 "Hg4 mi
1:30 AM77 °FClear.6 mph17%29.95 "Hg4 mi
1:00 AM79 °FClear.8 mph16%29.98 "Hg4 mi
12:30 AM81 °FClear.8 mph15%29.98 "Hg4 mi
12:00 AM81 °FClear.8 mph15%29.98 "Hg4 mi
11:30 PM
Sun, Mar 29
82 °FClear.9 mph14%29.98 "Hg4 mi
11:00 PM84 °FClear.9 mph12%30.01 "Hg4 mi
10:30 PM82 °FClear.8 mph14%29.98 "Hg4 mi
10:00 PM84 °FDuststorm.8 mph14%29.98 "Hg3 mi
9:30 PM86 °FDuststorm.9 mph12%29.98 "Hg2 mi
9:00 PM84 °FClear.8 mph13%29.98 "Hg2 mi
8:30 PM86 °FSandstorm.9 mph12%29.95 "Hg2 mi
8:00 PM90 °FSandstorm.13 mph10%29.95 "Hg2 mi
7:30 PM91 °FSandstorm.16 mph10%29.92 "Hg2 mi
7:00 PM91 °FSandstorm.17 mph9%29.92 "Hg2 mi
6:30 PM93 °FSandstorm.18 mph8%29.92 "Hg2 mi
6:00 PM95 °FSandstorm.17 mph8%29.89 "Hg2 mi
5:30 PM95 °FSandstorm.17 mph8%29.89 "Hg2 mi
5:00 PM95 °FSandstorm.16 mph8%29.89 "Hg2 mi
4:30 PM97 °FSandstorm.17 mph8%29.92 "Hg2 mi
4:00 PM97 °FSandstorm.16 mph7%29.92 "Hg2 mi
Weather by CustomWeather, © 2015

See weather overviewHow to use our weather pages